Location: Vancouver
(49.2500°N, 123.1330°W)
Time: 20:38:26
(UTC-07:00)

A-11 Canister half - Visible Passes

Search period start: 25 September 2016 00:00
Search period end: 05 October 2016 00:00
Orbit: 1525 x 1684 km, 47.3° (Epoch: 24 September)

Date Brightness Start Highest point End Pass type
(mag) Time Alt. Az. Time Alt. Az. Time Alt. Az.
25 Sep 11.0 20:28:52 10° W 20:35:18 20° SW 20:41:51 10° S visible
26 Sep 11.0 20:07:09 10° W 20:13:48 21° SW 20:20:35 10° S visible
27 Sep 11.1 19:45:27 10° W 19:52:18 22° SW 19:59:18 10° S visible
28 Sep 11.1 19:23:46 10° W 19:30:48 23° SW 19:38:00 10° S visible
